TimeCDT,TemperatureF,Dew PointF,Humidity,Sea Level PressureIn,VisibilityMPH,Wind Direction,Wind SpeedMPH,Gust SpeedMPH,PrecipitationIn,Events,Conditions,WindDirDegrees,DateUTC
12:53 AM,55.9,45.0,67,30.11,10.0,WNW,11.5,16.1,N/A,,Clear,290,2013-05-11 05:53:00
1:53 AM,53.1,45.0,74,30.12,10.0,West,5.8,-,N/A,,Clear,260,2013-05-11 06:53:00
2:53 AM,52.0,46.0,80,30.12,10.0,West,6.9,-,N/A,,Clear,280,2013-05-11 07:53:00
3:53 AM,54.0,45.0,72,30.13,10.0,North,15.0,-,N/A,,Clear,350,2013-05-11 08:53:00
4:53 AM,53.1,44.1,71,30.15,10.0,North,12.7,-,N/A,,Clear,350,2013-05-11 09:53:00
5:53 AM,53.1,44.1,71,30.19,10.0,North,16.1,-,N/A,,Scattered Clouds,360,2013-05-11 10:53:00
6:53 AM,52.0,42.1,69,30.23,10.0,North,15.0,-,N/A,,Scattered Clouds,10,2013-05-11 11:53:00
7:53 AM,54.0,41.0,62,30.27,10.0,North,17.3,-,N/A,,Mostly Cloudy,10,2013-05-11 12:53:00
8:53 AM,55.9,39.9,55,30.30,10.0,NNE,17.3,23.0,N/A,,Partly Cloudy,20,2013-05-11 13:53:00
9:53 AM,59.0,37.9,46,30.32,10.0,NNE,16.1,25.3,N/A,,Clear,30,2013-05-11 14:53:00
10:53 AM,62.1,35.1,37,30.34,10.0,NNE,19.6,27.6,N/A,,Clear,30,2013-05-11 15:53:00
11:53 AM,63.0,32.0,31,30.35,10.0,NNE,17.3,25.3,N/A,,Clear,20,2013-05-11 16:53:00
12:53 PM,64.9,28.0,25,30.35,10.0,NNE,19.6,27.6,N/A,,Clear,20,2013-05-11 17:53:00
1:53 PM,66.0,23.0,20,30.33,10.0,NNE,13.8,23.0,N/A,,Clear,20,2013-05-11 18:53:00
2:53 PM,66.9,21.9,18,30.32,10.0,NE,10.4,-,N/A,,Clear,40,2013-05-11 19:53:00
3:53 PM,69.1,24.1,18,30.29,10.0,North,16.1,21.9,N/A,,Clear,360,2013-05-11 20:53:00
4:53 PM,70.0,25.0,18,30.26,10.0,North,9.2,17.3,N/A,,Clear,350,2013-05-11 21:53:00
5:53 PM,69.1,25.0,19,30.25,10.0,NE,5.8,-,N/A,,Clear,50,2013-05-11 22:53:00
6:53 PM,69.1,27.0,21,30.23,10.0,North,5.8,-,N/A,,Clear,360,2013-05-11 23:53:00
7:53 PM,66.9,28.9,24,30.22,10.0,North,6.9,-,N/A,,Partly Cloudy,360,2013-05-12 00:53:00
9:53 PM,53.1,34.0,48,30.25,10.0,ESE,4.6,-,N/A,,Partly Cloudy,120,2013-05-12 02:53:00
10:53 PM,48.9,36.0,61,30.27,9.0,East,4.6,-,N/A,,Scattered Clouds,100,2013-05-12 03:53:00
11:53 PM,51.1,33.1,50,30.26,10.0,SE,4.6,-,N/A,,Partly Cloudy,130,2013-05-12 04:53:00